This demonstration page uses our WeatherBlox Daily Observations layout. Learn more.

Left ArrowRight Arrow

Hourly Observations for August 31, 2020

Temp ( °F °C ) Dew Point ( °F °C ) Humidity (%) Winds ( mph kmh ) Pressure ( in mb ) Visibility ( mi km ) Precip ( " mm )
12:51 am 00:51 Mostly Cloudy 80 26.7 65 18.3 60 60 WNW 14 22 29.72 1007 10 16.0934 0 0
1:51 am 01:51 Partly Cloudy 79 26.1 65 18.3 62 62 NW 14 22 29.71 1006 10 16.0934 0.001 0.001
2:51 am 02:51 Clear 78 25.6 65 18.3 64 64 NW 7 11 29.71 1006 10 16.0934 0 0
3:51 am 03:51 Clear 77 25 66 18.9 69 69 NW 5 7 29.72 1007 10 16.0934 0 0
4:51 am 04:51 Mostly Clear 76 24.4 66 18.9 72 72 NW 3 6 29.73 1007 10 16.0934 0 0
5:51 am 05:51 Cloudy with Light Rain 76 24.4 65 18.3 69 69 Calm 29.76 1008 10 16.0934 0.001 0.001
6:51 am 06:51 Mostly Sunny 76 24.4 66 18.9 72 72 WNW 3 6 29.77 1008 10 16.0934 0.001 0.001
7:51 am 07:51 Sunny 78 25.6 64 17.8 62 62 NW 7 11 29.78 1008 10 16.0934 0 0
8:51 am 08:51 Partly Cloudy 81 27.2 64 17.8 57 57 NW 9 15 29.78 1008 10 16.0934 0 0
9:51 am 09:51 Mostly Sunny 85 29.4 62 16.7 46 46 NW 7 11 29.78 1008 10 16.0934 0 0
10:51 am 10:51 Sunny 89 31.7 57 13.9 34 34 NW 12 19 29.75 1008 10 16.0934 0 0
11:51 am 11:51 Sunny 92 33.3 55 12.8 29 29 NW 9 15 29.72 1007 10 16.0934 0 0
12:51 pm 12:51 Sunny 93 33.9 56 13.3 29 29 W 14 22 29.7 1006 10 16.0934 0 0
1:51 pm 13:51 Sunny 95 35 56 13.3 27 27 W 14 22 29.67 1005 10 16.0934 0 0
2:51 pm 14:51 Sunny 97 36.1 54 12.2 24 24 W 10 17 29.63 1003 10 16.0934 0 0
3:51 pm 15:51 Sunny 96 35.6 53 11.7 23 23 W 15 24 29.62 1003 10 16.0934 0 0
4:51 pm 16:51 Mostly Sunny 96 35.6 54 12.2 24 24 W 15 24 29.63 1003 10 16.0934 0 0
5:51 pm 17:51 Sunny 94 34.4 47 8.3 20 20 WNW 20 31 29.63 1004 10 16.0934 0 0
6:51 pm 18:51 Clear 88 31.1 53 11.7 30 30 W 15 24 29.65 1004 10 16.0934 0 0
7:51 pm 19:51 Clear 86 30 52 11.1 31 31 NW 16 26 29.67 1005 10 16.0934 0 0
8:51 pm 20:51 Clear 84 28.9 56 13.3 38 38 NW 12 19 29.7 1006 10 16.0934 0 0
9:51 pm 21:51 Clear 83 28.3 56 13.3 40 40 NW 9 15 29.71 1006 10 16.0934 0 0
10:51 pm 22:51 Clear 81 27.2 57 13.9 44 44 NW 12 19 29.72 1007 10 16.0934 0 0
11:51 pm 23:51 Clear 80 26.7 57 13.9 45 45 NW 9 15 29.73 1007 10 16.0934 0 0

Powered by AerisWeather